User: anonymous   Login
Location: Unspecified
(0.0000°N, 0.0000°E)
Time: 16:33:31
(UTC+00:00)
Language:

MOZHAYETS 4 - Orbit

View from above orbital plane
View from above orbital plane
View from above satellite
View from above satellite

Ground track
Ground track

The orbit data is extracted from the following two-line orbital elements,

1 27939U 03042A   17204.95927894 +.00000098 +00000-0 +26136-4 0  9995
2 27939 097.9442 348.5239 0014373 108.1100 000.6000 14.66580750738567
Epoch (UTC): 23 July 2017 23:01:21
Eccentricity: 0.0014373
inclination: 97.9442°
perigee height: 662 km
apogee height: 682 km
right ascension of ascending node: 348.5239°
argument of perigee: 108.1100°
revolutions per day: 14.66580750
mean anomaly at epoch: 0.6000°
orbit number at epoch: 73856

The dashed part of the orbit path shows where the satellite is in the earth's shadow,  

DLR